RH
83 93 92 96 98 90 85 86 83 77 69 65 60 57 60 59 55 49 46 45 43 44 43 40 38 36 35 37 35 34 32 31 32 34 39 39 40 38 37 37 41 44 46
73 76 88 95 96 93 86 84 82 79 76 70 65 60 59 59 58 51 48 47 47 43 43 43 42 38 36 36 36 36 36 35 35 39 41 44 46 43 43 43 41 41 41
60 71 79 86 90 89 88 85 82 78 75 68 66 63 61 59 57 55 51 48 47 47 45 42 43 41 39 40 41 41 41 40 40 41 43 45 48 50 48 47 45 45 44
53 61 73 83 91 90 87 86 82 77 73 70 68 61 58 55 56 56 55 52 50 48 48 46 46 45 42 43 44 45 44 43 44 45 45 48 51 54 55 56 55 53 53
52 56 64 73 83 89 89 90 81 75 75 72 64 58 53 53 57 57 57 56 54 52 51 48 49 48 48 47 46 46 46 46 47 49 52 54 57 60 61 62 63 60 58
50 53 59 69 75 85 92 88 85 77 73 67 61 56 53 54 56 58 60 61 58 55 53 50 49 49 49 49 47 44 44 44 45 48 52 55 58 59 60 61 61 55 49
51 50 52 58 69 79 86 87 84 77 72 66 61 57 56 55 56 58 62 63 60 58 53 50 51 51 48 43 39 34 31 31 31 33 35 37 38 38 38 36 33 30 30
54 54 56 61 66 72 77 81 80 74 70 67 64 63 60 58 58 59 62 63 62 61 56 53 52 45 36 31 29 29 30 30 31 32 33 33 33 32 32 31 30 29 27
55 57 60 64 70 74 75 75 73 71 70 70 68 65 61 59 58 59 60 60 59 59 57 50 40 34 32 31 32 33 33 34 35 36 35 35 34 33 33 32 31 29 28
58 57 59 64 68 72 74 72 71 70 68 66 64 61 58 57 57 56 56 57 57 51 42 38 37 36 36 36 36 36 36 37 36 36 36 35 34 32 31 29 28 26 25
60 61 60 60 63 67 68 66 63 61 59 58 58 57 57 56 57 56 53 48 42 38 37 36 36 36 36 37 37 37 37 37 37 36 35 33 32 30 28 27 25 24 23
63 63 63 63 62 62 63 62 60 60 59 60 60 59 58 58 55 48 43 41 40 39 39 38 38 38 37 38 38 38 38 38 37 36 35 34 32 31 29 27 26 25 24
64 63 63 64 63 62 62 63 63 63 63 62 59 55 51 49 49 45 43 42 41 40 40 40 40 40 41 42 42 42 42 42 41 40 39 38 37 36 35 34 34 33 32
67 67 66 65 65 65 65 63 62 61 60 57 56 56 55 54 51 48 47 47 47 47 47 48 49 49 51 51 52 51 49 48 48 47 46 44 42 40 39 38 37 34 33
73 72 72 72 69 67 65 64 64 64 64 62 60 59 57 55 54 53 52 52 53 57 60 60 62 62 62 60 58 55 53 52 49 46 43 41 40 37 34 33 32 31 30
78 76 78 79 78 75 73 70 68 68 68 68 67 66 63 61 61 62 65 66 66 69 66 65 65 64 59 55 53 49 45 43 41 37 36 34 34 32 30 29 28 33 35
81 79 81 80 77 75 74 73 71 69 69 68 66 65 68 68 69 71 74 75 75 71 66 64 57 54 51 46 44 45 46 38 35 32 30 28 26 25 24 23 23 22 23
86 86 84 81 77 77 75 72 71 73 72 75 80 83 83 81 80 78 75 71 67 62 56 53 49 47 45 43 40 43 42 36 30 28 27 26 25 23 23 23 23 23 25
91 90 86 82 79 78 77 79 84 91 96 92 86 85 81 76 75 70 62 57 55 53 51 47 44 39 36 33 31 34 32 30 27 25 26 26 26 24 26 31 34 32 29
97 92 87 83 88 89 95 97 97 97 94 86 79 76 70 65 63 60 59 53 47 44 40 35 32 31 28 26 25 32 31 30 29 28 28 27 28 34 34 35 36 35 34
96 90 93 96 97 97 97 97 97 91 85 79 77 74 65 60 54 47 42 37 34 32 31 30 28 26 24 22 23 29 30 32 35 35 34 30 25 32 32 41 41 38 39
97 97 97 97 97 97 96 90 86 83 77 69 63 59 51 44 39 36 33 31 30 28 26 25 27 27 26 24 21 26 33 33 32 31 30 29 36 40 41 44 42 41 43
97 97 97 97 97 95 90 84 73 68 63 55 46 42 37 35 33 31 30 27 26 26 28 29 28 25 21 19 20 25 31 31 32 28 33 40 40 41 41 37 43 50 46
97 97 97 97 94 82 72 66 61 50 44 42 39 33 30 29 27 26 26 26 26 27 29 26 25 23 21 22 26 30 30 30 30 32 41 41 39 35 36 37 40 43 42
98 97 91 80 72 66 61 51 45 42 36 31 30 30 28 28 26 23 21 20 20 25 29 29 29 27 27 28 37 41 41 41 43 43 40 35 32 30 28 29 32 38 46
91 78 69 66 62 49 42 35 32 31 30 30 30 27 23 20 17 16 16 15 20 22 28 29 30 30 31 33 42 42 43 44 45 39 33 29 29 30 31 32 33 36 41